Overview Statistics Trail Chart Weather Telemetry Raw packets
 

This is the latest recevied weather packets stored in our database for station/object N2ZVN. If no packets are shown the sender has not sent any weather packets the latest 10 day(s).

<< 96 97 98 99 100 101 102 >>
Time Temp. Humidity Pressure Rain* Wind** Luminosity Snow
1787988739 13.33° C 92% 1022.8 hPa 0 mm - 0 W/m² -
1787988436 13.33° C 92% 1022.7 hPa 0 mm - 0 W/m² -
1787988135 12.78° C 95% 1022.9 hPa 0 mm - 0 W/m² -
1787987831 12.78° C 96% 1022.7 hPa 0 mm - 0 W/m² -
1787987525 12.78° C 96% 1022.8 hPa 0 mm - 0 W/m² -
1787987220 12.78° C 96% 1022.8 hPa 0 mm - 0 W/m² -
1787986916 12.22° C 95% 1022.7 hPa 0 mm - 0 W/m² -
1787986615 12.22° C 95% 1022.5 hPa 0 mm - 0 W/m² -
1787986309 12.78° C 94% 1022.6 hPa 0 mm - 0 W/m² -
1787986009 12.78° C 94% 1022.8 hPa 0 mm - 0 W/m² -
1787985709 12.78° C 94% 1022.6 hPa 0 mm - 0 W/m² -
1787985403 13.33° C 93% 1022.6 hPa 0 mm - 0 W/m² -
1787985103 13.33° C 91% 1022.5 hPa 0 mm - 0 W/m² -
1787984802 13.33° C 89% 1022.6 hPa 0 mm - 0 W/m² -
1787984498 13.33° C 89% 1022.6 hPa 0 mm - 0 W/m² -
1787984196 13.33° C 90% 1022.6 hPa 0 mm - 0 W/m² -
1787983891 12.78° C 91% 1022.6 hPa 0 mm - 0 W/m² -
1787983587 13.33° C 91% 1022.6 hPa 0 mm - 0 W/m² -
1787983281 13.33° C 90% 1022.7 hPa 0 mm - 0 W/m² -
1787982976 13.33° C 90% 1022.7 hPa 0 mm - 0 W/m² -
1787982672 13.33° C 90% 1022.5 hPa 0 mm - 0 W/m² -
1787982368 13.33° C 89% 1022.6 hPa 0 mm - 0 W/m² -
1787982062 13.89° C 89% 1022.7 hPa 0 mm - 0 W/m² -
1787981758 13.33° C 90% 1022.7 hPa 0 mm - 0 W/m² -
1787981457 12.78° C 92% 1022.8 hPa 0 mm - 0 W/m² -

* Rain latest hour (hover to see other rain measurements)
** Current wind speed in m/s (hover to see current wind gust speed)